Погода в Эль-Аюне

Сахарская Арабская Демократическая Республика     27°08′59″N   13°12′11″W
В апреле 2022 года жителям России запретили посещать сайт meteo.paraplan.net по решению Генеральной прокуратуры. Аудитория сайта уменьшилась в 10 раз. Владельцы сайта не видят смысла в поддержке погодного сервера в таких условиях. Сайт будет закрыт в октябре.
темп.,
°C
ветер,
м/с
пор.,
м/с
влажн.,
%
обл.,
%
осадки,
мм/ч
давл.,
гПа
погр.,
м
3 октября, пн
пн301:00+23всв48580 0.0 1016155
04:00+24всв56440 0.0 101564
07:00+23всв44380 0.0 101642
10:00+28в34253 0.0 1018176
13:00+34ююв23175 0.0 1017947
16:00+33ссз632612 0.0 1016561
19:00+28с79445 0.0 1016251
22:00+26ссв7114981 0.0 1017246
4 октября, вт
вт401:00+25св6115014 0.0 1017229
04:00+24св611515 0.0 1015212
07:00+24св612525 0.0 1015187
10:00+27св710435 0.0 1017312
13:00+34св78235 0.0 1017738
16:00+35ссв99225 0.0 1014843
19:00+30св912295 0.0 1015493
22:00+26св815485 0.0 1017352
5 октября, ср
ср501:00+24св9165537 0.0 1017331
04:00+23св8166118 0.0 1016305
07:00+22св8166524 0.0 1016303
10:00+25св91451100 0.0 1017475
13:00+31ссв10122762 0.0 1017772
16:00+30ссв101229100 0.0 1015774
19:00+26ссв91244100 0.0 1016562
22:00+23ссв71163100 0.0 1018398
6 октября, чт
чт601:00+22ссв71177100 0.0 1018378
04:00+21ссв61184100 0.0 1017410
07:00+20ссв61088100 0.0 1016364
10:00+22ссв81173100 0.0 1017564
13:00+25с9105898 0.0 1017774
16:00+25с91057100 0.0 1014772
19:00+23с8107293 0.0 1014583
22:00+21с71085100 0.0 1015477
7 октября, пт
пт701:00+21с6109221 0.0 1015465
04:00+20с699317 0.0 1013328
07:00+20с589427 0.0 1013248
10:00+22с6879100 0.1 1014684
13:00+23с787369 0.1 1014784
16:00+25ссз776417 0.0 1011808
19:00+23ссз68765 0.0 1012651
22:00+22с358511 0.0 1013344